TimeEDT,TemperatureF,Dew PointF,Humidity,Sea Level PressureIn,VisibilityMPH,Wind Direction,Wind SpeedMPH,Gust SpeedMPH,PrecipitationIn,Events,Conditions,WindDirDegrees,DateUTC
12:53 AM,71.1,69.1,93,29.62,0.5,Calm,Calm,-,N/A,Fog,Fog,0,2013-07-24 04:53:00
1:22 AM,71.6,69.8,94,29.58,0.2,Calm,Calm,-,N/A,Fog,Fog,0,2013-07-24 05:22:00
1:34 AM,69.8,69.8,100,29.58,0.2,Calm,Calm,-,N/A,Fog,Fog,0,2013-07-24 05:34:00
1:53 AM,70.0,70.0,100,29.61,0.1,Calm,Calm,-,N/A,Fog,Fog,0,2013-07-24 05:53:00
2:10 AM,69.8,69.8,100,29.58,0.1,Calm,Calm,-,N/A,Fog,Fog,0,2013-07-24 06:10:00
2:53 AM,70.0,70.0,100,29.60,0.1,Calm,Calm,-,N/A,Fog,Fog,0,2013-07-24 06:53:00
3:11 AM,69.8,69.8,100,29.58,0.2,West,3.5,-,N/A,Fog,Fog,280,2013-07-24 07:11:00
3:31 AM,69.8,69.8,100,29.58,0.2,Calm,Calm,-,N/A,Fog,Fog,0,2013-07-24 07:31:00
3:53 AM,70.0,69.1,97,29.61,0.2,Calm,Calm,-,N/A,Fog,Fog,0,2013-07-24 07:53:00
4:30 AM,69.8,69.8,100,29.58,1.5,Calm,Calm,-,N/A,,Overcast,0,2013-07-24 08:30:00
4:53 AM,69.1,69.1,100,29.61,1.0,Calm,Calm,-,N/A,,Mostly Cloudy,0,2013-07-24 08:53:00
4:55 AM,69.8,69.8,100,29.58,7.0,Calm,Calm,-,N/A,,Overcast,0,2013-07-24 08:55:00
5:53 AM,70.0,68.0,93,29.61,10.0,Calm,Calm,-,N/A,,Scattered Clouds,0,2013-07-24 09:53:00
6:53 AM,72.0,69.1,91,29.63,10.0,Calm,Calm,-,N/A,,Mostly Cloudy,0,2013-07-24 10:53:00
7:53 AM,73.0,70.0,90,29.64,10.0,South,3.5,-,N/A,,Mostly Cloudy,180,2013-07-24 11:53:00
8:53 AM,77.0,66.9,71,29.65,10.0,WNW,4.6,-,N/A,,Partly Cloudy,290,2013-07-24 12:53:00
9:53 AM,80.1,66.0,62,29.67,10.0,WSW,4.6,-,N/A,,Partly Cloudy,240,2013-07-24 13:53:00
10:53 AM,82.0,66.0,58,29.68,10.0,West,5.8,-,N/A,,Scattered Clouds,280,2013-07-24 14:53:00
11:53 AM,84.0,64.9,53,29.70,10.0,WSW,10.4,16.1,N/A,,Mostly Cloudy,250,2013-07-24 15:53:00
12:53 PM,84.0,64.0,51,29.71,10.0,West,15.0,21.9,N/A,,Mostly Cloudy,280,2013-07-24 16:53:00
1:53 PM,82.0,62.1,51,29.72,10.0,WNW,10.4,18.4,N/A,,Scattered Clouds,290,2013-07-24 17:53:00
2:53 PM,82.0,61.0,49,29.74,10.0,West,11.5,18.4,N/A,,Scattered Clouds,280,2013-07-24 18:53:00
3:53 PM,79.0,57.9,48,29.76,10.0,WNW,10.4,19.6,N/A,,Mostly Cloudy,290,2013-07-24 19:53:00
4:53 PM,80.1,57.0,45,29.78,10.0,WNW,3.5,-,N/A,,Scattered Clouds,300,2013-07-24 20:53:00
5:53 PM,80.1,57.9,47,29.79,10.0,NW,5.8,-,N/A,,Partly Cloudy,320,2013-07-24 21:53:00
6:53 PM,78.1,57.9,50,29.82,10.0,NNW,19.6,-,N/A,,Scattered Clouds,340,2013-07-24 22:53:00
7:53 PM,73.9,55.9,53,29.87,10.0,NNW,13.8,-,N/A,,Partly Cloudy,330,2013-07-24 23:53:00
8:53 PM,71.1,55.0,57,29.91,10.0,North,13.8,-,N/A,,Partly Cloudy,360,2013-07-25 00:53:00
9:53 PM,66.9,51.1,57,29.96,10.0,NNW,15.0,23.0,N/A,,Partly Cloudy,340,2013-07-25 01:53:00
10:53 PM,64.0,48.9,58,29.99,10.0,North,16.1,23.0,N/A,,Overcast,10,2013-07-25 02:53:00
11:53 PM,62.1,46.0,56,30.01,10.0,NNW,13.8,21.9,N/A,,Overcast,340,2013-07-25 03:53:00